Location: Home
(42.5358°N, 72.7383°W)
Time: 12:37:05
(UTC-05:00)

A-11 Canister half - Pass Details

Date: 29 November 2021
Orbit: 1516 x 1684 km, 47.2° (Epoch: 26 January)

Event Time Altitude Azimuth Distance (km) Brightness Sun altitude
Rises 12:09:37 0° 287° (WNW) 4,883 11.5 25.5°
Reaches altitude 10° 12:12:46 10° 289° (WNW) 3,912 11.1 25.4°
Maximum altitude 12:22:53 76° 15° (NNE) 1,726 9.5 25.1°
Drops below altitude 10° 12:33:06 10° 102° (ESE) 3,940 11.2 24.7°
Sets 12:36:16 0° 104° (ESE) 4,919 11.7 24.5°
